星链-5557 (STARLINK-5557 )

导读

STARLINK-5557是美国SpaceX星链互联网卫星星座中的一员,于2023年3月3日发射入轨,属于星链低轨卫星组网任务的组成部分。它部署在近地轨道,主要为全球范围提供宽带互联网接入服务,尤其提升偏远地区网络覆盖,是星链星座大规模部署进程中的一颗组网卫星。

Basic Information
目录编号:
55770
目录名称:
STARLINK-5557
国际标识:
2023-028AF
轨道中心:
EARTH
卫星名称:
星链-5557
卫星全名:
星链-5557 (STARLINK-5557 )
卫星状态:
在轨 (已飞行1288 天)
发射日期:
2023-03-03 UTC
国别 :
美国 (US)
星等 :
--
This satellite is enrolled in the Space Conjunction Data Service (SCDS) and the current flight risk assessment level is: No High Risk
Orbit Information
数据来源 国际轨道数据 AOE轨道数据
星历时间 2026-09-11T08:34:53+0800
18小时前
查看轨道信息
2026-09-10T22:00:00+0800
1天前
查看轨道信息
半长轴 6950.184km 6950.206km
偏心率 0.0002211 0.0001829
轨道倾角 69.999° 69.998°
近地点辐角 271.218° 301.332°
升交点赤经 117.197° 118.307°
平近点角 88.873° 201.247°
近地点 570.51km 570.797km
远地点 573.584km 573.341km
周期 96.107分钟 96.107分钟
每日圈数 14.983329 14.98326
Detailed Information
固有亮度:
5
最大亮度:
2.5
卫星平台:
Starlink v1.5
覆盖范围:
全球
运营商:
太空探索技术公司
运营商所在国:
美国
制造商(研发单位):
太空探索技术公司
制造商所在国:
美国
使用方式:
暂无
Satellite Introduction
星链(Starlink)计划是由太空探索技术公司(SpaceX)提出的一个巨型低轨卫星互联网星座项目,计划在2019年至2024年间在太空搭建由约1.2万颗卫星组成的“星链”网络,其中1584颗将部署在地球上空550千米处的近地轨道,并从2020年开始工作。该卫星仍在工作。
2D Orbit Map
3D Orbit Map
Orbit Altitude Analysis Chart
Orbit Inclination Analysis Chart
Orbit Comprehensive Analysis Chart
View Comprehensive Chart
Conjunction Data List
Event ID Objects TCA Miss Dist (km) Collision Risk Probability Collision Risk Index (CRI) Action
CDM_260906-115105-577006-054025
HAWK-10A (60540)
2026-09-06T
11:51:47+0000
1.663 km
极远距离
4.860805E-6 低风险 0.49
CDM_260912-015304-284305-577024
OBJECT U (42843)
2026-09-12T
01:53:17+0000
1.707 km
极远距离
3.152173E-6 低风险 0.45
Miss Distance Evolution Trend with All Objects
Collision Probability Evolution Trend with All Objects